Find STARLINK-37961

NORAD ID: 799501038 Int'l Des: 2026-146Q Constellation: starlink operational

Current View

Loading 3D Globe...

About STARLINK-37961

STARLINK-37961 (NORAD 799501038) is a starlink constellation satellite launched Jun 12, 2026

About STARLINK-37961

Description loading...

Upcoming Passes

Passes for default location (London). Set your location on the main map for personalized predictions.

Altitude History

Loading altitude history...

Two-Line Element Set

1 99999C 2026146Q 26176.29979167 .01130900 00000-0 171640-3 0 1761
2 99999 97.2854 21.9525 0011103 278.7333 14.0509 16.03818575 19
Epoch: Jun 25, 2026 • Age: 9 hours